Regional Weather Roundup
Issued by NWS

Home | Current Version | Previous Version | Graphics & Text | Print | Product List | Glossary On
Versions: 1 2 3 4 5 6 7 8 9 10 11 12 13 14 15 16 17 18 19 20 21 22 23 24 25 26 27 28 29 30 31 32 33 34 35 36 37 38 39 40 41 42 43 44 45 46 47 48 49 50
000
ASUS43 KFSD 250610
RWRSD

WEATHER ROUNDUP FOR SOUTH DAKOTA
NATIONAL WEATHER SERVICE SIOUX FALLS SD
100 AM CDT WED APR 25 2018

NOTE: "FAIR" INDICATES FEW OR NO CLOUDS BELOW 12,000 FEET WITH NO
SIGNIFICANT WEATHER AND/OR OBSTRUCTIONS TO VISIBILITY.


SDZ001>005-009-010-012>017-250700-
NORTHWEST AND NORTH CENTRAL SOUTH DAKOTA

CITY           SKY/WX    TMP DP  RH WIND       PRES   REMARKS
BUFFALO          N/A     38  29  70 W6        30.29F
FAITH            N/A     37  29  72 W6        30.35F
MOBRIDGE       CLEAR     36  28  73 SE3       30.32F
$$

SDZ012>016-024>037-041>051-057-063-072>074-250700-
SOUTHWEST AND SOUTH CENTRAL SOUTH DAKOTA

CITY           SKY/WX    TMP DP  RH WIND       PRES   REMARKS
RAPID CTY ARPT CLEAR     30  22  72 W6        30.39F WCI  24
PIERRE         CLEAR     35  28  75 W6        30.35F
CUSTER         CLEAR     27  17  66 W5        30.36F WCI  22
PHILIP         CLEAR     29  27  92 W7        30.38F WCI  22
PINE RIDGE     MOCLDY    31  28  89 W3        30.40F
SPEARFISH      FAIR      34  25  69 VRB5      30.38F WCI  30
WINNER         MOCLDY    39  33  79 W6        30.37S
$$

SDZ004>011-016>023-039-040-250700-
NORTHEAST SOUTH DAKOTA

CITY           SKY/WX    TMP DP  RH WIND       PRES   REMARKS
ABERDEEN       CLEAR     29  26  89 W3        30.35F
WATERTOWN      CLEAR     31  28  89 NW3       30.31F
BROOKINGS      CLEAR     34  30  85 N7        30.31S WCI  28
SISSETON         N/A     34  29  82 NW8       30.31F WCI  27
$$

SDZ017-020-022-023-036>040-048>070-250700-
SOUTHEAST SOUTH DAKOTA

CITY           SKY/WX    TMP DP  RH WIND       PRES   REMARKS
SIOUX FALLS    CLEAR     39  31  72 N13       30.29S
HURON          CLEAR     32  30  92 NW5       30.34F WCI  27
CHAMBERLAIN    CLEAR     36  36 100 W6        30.36S
MITCHELL       CLEAR     37  33  85 W5        30.34S
YANKTON        PTCLDY    42  40  92 NW8       30.32S
$$

ABBREVIATIONS USED IN REMARKS
   TC - TEMPERATURE IN CELSIUS
  WCI - WIND CHILL INDEX
   HX - HEAT INDEX
  VSB - VISIBILITY




USA.gov is the U.S. government's official web portal to all federal, state and local government web resources and services.